User: anonymous   Login
Location: Unspecified
(0.0000°N, 0.0000°E)
Time: 03:17:30
(UTC+01:00)
Language:

Cosmos 540 Rocket - Orbit

View from above orbital plane
View from above orbital plane
View from above satellite
View from above satellite

Ground track
Ground track

The orbit data is extracted from the following two-line orbital elements,

1 06324U 72104B   18054.84534586  .00000047  00000-0  21674-4 0  9995
2 06324  74.0787 359.5852 0007863  73.0016 287.2002 14.43404029371887
Epoch (UTC): 23 February 2018 20:17:17
Eccentricity: 0.0007863
inclination: 74.0787°
perigee height: 741 km
apogee height: 753 km
right ascension of ascending node: 359.5852°
argument of perigee: 73.0016°
revolutions per day: 14.43404029
mean anomaly at epoch: 287.2002°
orbit number at epoch: 37188

The dashed part of the orbit path shows where the satellite is in the earth's shadow,  

DLR